| time (UTC) | temp F | wind direction | speed MPH | gust MPH | rain 1hr in | rain 24hr in | rain mn in | humidity % | barometer mb |
| 20260504041510 | 46 | 227 | 0.0 | 0.0 | 0.00 | 0.00 | 0.00 | 61 | 1015.1 |
| 20260504040008 | 47 | 227 | 0.0 | 0.0 | 0.00 | 0.00 | 0.00 | 61 | 1015.2 |
| 20260504034504 | 47 | 227 | 0.0 | 0.0 | 0.00 | 0.00 | 0.00 | 60 | 1015.3 |
| 20260504033128 | 47 | 227 | 0.0 | 0.0 | 0.00 | 0.00 | 0.00 | 61 | 1015.3 |
| 20260504031558 | 47 | 227 | 0.0 | 0.0 | 0.00 | 0.00 | 0.00 | 63 | 1015.3 |
| 20260504030051 | 47 | 227 | 0.0 | 0.0 | 0.00 | 0.00 | 0.00 | 64 | 1015.2 |
| 20260504024547 | 47 | 227 | 0.0 | 0.0 | 0.00 | 0.00 | 0.00 | 65 | 1015.4 |
| 20260504023059 | 48 | 227 | 0.0 | 0.0 | 0.00 | 0.00 | 0.00 | 65 | 1015.3 |
| 20260504021542 | 48 | 227 | 0.0 | 0.0 | 0.00 | 0.00 | 0.00 | 64 | 1015.1 |
| 20260504020040 | 49 | 227 | 0.0 | 0.0 | 0.00 | 0.00 | 0.00 | 64 | 1014.9 |
| 20260504014547 | 50 | 227 | 0.0 | 0.0 | 0.00 | 0.00 | 0.00 | 63 | 1014.7 |
| 20260504013041 | 51 | 227 | 0.0 | 0.0 | 0.00 | 0.00 | 0.00 | 62 | 1014.5 |
| 20260504011529 | 52 | 227 | 0.0 | 0.0 | 0.00 | 0.00 | 0.00 | 60 | 1014.5 |
| 20260504010028 | 53 | 227 | 0.0 | 0.0 | 0.00 | 0.00 | 0.00 | 57 | 1014.5 |
| 20260504004521 | 54 | 227 | 0.0 | 0.0 | 0.00 | 0.00 | 0.00 | 55 | 1014.4 |
| 20260504003026 | 56 | 227 | 0.0 | 0.0 | 0.00 | 0.00 | 0.00 | 52 | 1014.3 |
| 20260504001515 | 57 | 227 | 0.0 | 0.0 | 0.00 | 0.00 | 0.00 | 51 | 1014.2 |
| 20260504000011 | 58 | 11 | 0.0 | 0.0 | 0.00 | 0.00 | 0.00 | 47 | 1014.1 |
| 20260503234520 | 59 | 306 | 0.0 | 0.0 | 0.00 | 0.00 | 0.00 | 44 | 1014.1 |
| 20260503233003 | 60 | 34 | 0.0 | 0.0 | 0.00 | 0.00 | 0.00 | 42 | 1014.1 |
| 20260503231559 | 61 | 19 | 0.0 | 0.0 | 0.00 | 0.00 | 0.00 | 43 | 1014.1 |
| 20260503230100 | 62 | 66 | 0.0 | 0.0 | 0.00 | 0.00 | 0.00 | 41 | 1014.0 |
| 20260503224550 | 62 | 309 | 0.0 | 0.0 | 0.00 | 0.00 | 0.00 | 37 | 1014.1 |
| 20260503223049 | 62 | 93 | 0.0 | 0.0 | 0.00 | 0.00 | 0.00 | 36 | 1014.2 |
| 20260503221543 | 63 | 110 | 0.0 | 0.0 | 0.00 | 0.00 | 0.00 | 37 | 1014.4 |
| 20260503220036 | 63 | 342 | 0.0 | 0.0 | 0.00 | 0.00 | 0.00 | 31 | 1014.6 |
| 20260503214533 | 63 | 264 | 0.0 | 0.0 | 0.00 | 0.00 | 0.00 | 33 | 1014.8 |
| 20260503213027 | 63 | 161 | 0.0 | 2.0 | 0.00 | 0.00 | 0.00 | 32 | 1014.8 |
| 20260503211523 | 63 | 281 | 0.0 | 0.0 | 0.00 | 0.00 | 0.00 | 33 | 1014.8 |
| 20260503210025 | 63 | 292 | 0.0 | 0.0 | 0.00 | 0.00 | 0.00 | 31 | 1014.8 |
| 20260503204514 | 63 | 291 | 0.0 | 1.0 | 0.00 | 0.00 | 0.00 | 31 | 1015.0 |
| 20260503203014 | 63 | 271 | 0.0 | 0.0 | 0.00 | 0.00 | 0.00 | 32 | 1015.1 |
| 20260503201507 | 62 | 335 | 0.0 | 0.0 | 0.00 | 0.00 | 0.00 | 30 | 1015.4 |
| 20260503200006 | 62 | 268 | 0.0 | 1.0 | 0.00 | 0.00 | 0.00 | 32 | 1015.8 |
| 20260503194505 | 62 | 325 | 0.0 | 0.0 | 0.00 | 0.00 | 0.00 | 31 | 1015.8 |
| 20260503193002 | 61 | 294 | 0.0 | 0.0 | 0.00 | 0.00 | 0.00 | 33 | 1016.1 |
| 20260503191629 | 61 | 281 | 0.0 | 0.0 | 0.00 | 0.00 | 0.00 | 31 | 1016.2 |
| 20260503190123 | 61 | 111 | 0.0 | 1.0 | 0.00 | 0.00 | 0.00 | 31 | 1016.4 |
| 20260503184557 | 62 | 123 | 0.0 | 0.0 | 0.00 | 0.00 | 0.00 | 33 | 1016.6 |
| 20260503183100 | 62 | 336 | 0.0 | 0.0 | 0.00 | 0.00 | 0.00 | 33 | 1016.9 |
| 20260503181540 | 62 | 338 | 0.0 | 0.0 | 0.00 | 0.00 | 0.00 | 35 | 1017.1 |
| 20260503180042 | 61 | 334 | 0.0 | 1.0 | 0.00 | 0.00 | 0.00 | 34 | 1017.2 |
| 20260503174534 | 62 | 302 | 0.0 | 0.0 | 0.00 | 0.00 | 0.00 | 35 | 1017.4 |
| 20260503173037 | 61 | 5 | 0.0 | 0.0 | 0.00 | 0.00 | 0.00 | 37 | 1017.4 |
| 20260503171522 | 60 | 351 | 0.0 | 1.0 | 0.00 | 0.00 | 0.00 | 35 | 1017.6 |
| 20260503120103 | 37 | 300 | 0.0 | 0.0 | 0.00 | 0.00 | 0.00 | 1 | 1018.6 |
| 20260503081546 | 37 | 84 | 0.0 | 0.0 | 0.00 | 0.00 | 0.00 | 1 | 1015.7 |
| 20260503071527 | 37 | 84 | 0.0 | 0.0 | 0.00 | 0.00 | 0.00 | 2 | 1015.0 |
| 20260503054503 | 38 | 84 | 0.0 | 0.0 | 0.00 | 0.00 | 0.00 | 28 | 1014.7 |
| 20260503053059 | 39 | 84 | 0.0 | 0.0 | 0.00 | 0.00 | 0.00 | 32 | 1014.6 |
| 20260503051600 | 39 | 84 | 0.0 | 0.0 | 0.00 | 0.00 | 0.00 | 34 | 1014.6 |
| 20260503050054 | 40 | 84 | 0.0 | 0.0 | 0.00 | 0.00 | 0.00 | 38 | 1014.5 |
| 20260503044553 | 40 | 84 | 0.0 | 0.0 | 0.00 | 0.00 | 0.00 | 43 | 1014.3 |
| 20260503043050 | 41 | 84 | 0.0 | 0.0 | 0.00 | 0.00 | 0.00 | 45 | 1014.3 |